Weather History for Olean, NY

Change the Weather History Date:

Sunday, October 26, 2014

  Actual Average (KBFD) Record (KBFD)
Temperature  
Mean Temperature 42 °F 44 °F  
Max Temperature 46 °F 54 °F 76 °F (1991)
Min Temperature 37 °F 34 °F 19 °F (1987)
Degree Days  
Heating Degree Days 24 17  
Month to date heating degree days 348  
Since 1 July heating degree days 765  
Cooling Degree Days 0 0  
Month to date cooling degree days 0  
Year to date cooling degree days 192  
Moisture  
Dew Point 40 °F    
Average Humidity 90    
Maximum Humidity 100    
Minimum Humidity 76    
Precipitation  
Precipitation 0.00 in 0.10 in 0.85 in (2010)
Month to date precipitation 2.89  
Year to date precipitation 36.76  
Sea Level Pressure  
Sea Level Pressure 29.76 in    
Wind  
Wind Speed 9 mph (WNW)    
Max Wind Speed 21 mph    
Max Gust Speed 33 mph    
Visibility 10 miles    
Events      
T = Trace of Precipitation, MM = Missing Value Source: NWS Daily Summary

Daily Weather History Graph

Daily Weather History Graph

Search for Another Location

Airport:

Trip Planner

Search our weather history database for the weather conditions in past years. The results will help you decide how hot, cold, wet, or windy it might be!

Date:

Astronomy

Oct. 26, 2014 Rise Set
Actual Time 7:39 AM EDT 6:15 PM EDT
Civil Twilight 7:10 AM EDT 6:43 PM EDT
Nautical Twilight 6:37 AM EDT 7:16 PM EDT
Astronomical Twilight 6:05 AM EDT 7:49 PM EDT
Moon 10:17 AM EDT (10/26) 8:22 PM EDT (10/26)
Length of Visible Light 11h 33m
Length of Day
10h 35m
Waxing Crescent, 8% of the Moon is Illuminated
Oct 26
Waxing Crescent
Oct 30
First Quarter
Nov 6
Full
Nov 14
Last Quarter
Nov 22
New

Hourly Weather History & Observations

Time (EDT) Temp. Windchill Dew Point Humidity Pressure Visibility Wind Dir Wind Speed Gust Speed Precip Events Conditions
12:15 AM 46.4 °F 42.4 °F 42.8 °F 87% 29.67 in 10.0 mi NW 8.1 mph 19.6 mph N/A   Scattered Clouds
12:35 AM 44.6 °F 39.7 °F 41.0 °F 87% 29.66 in 10.0 mi WNW 9.2 mph - N/A   Clear
12:55 AM 44.6 °F 41.4 °F 41.0 °F 87% 29.67 in 10.0 mi WNW 5.8 mph - N/A   Clear
1:15 AM 44.6 °F 41.4 °F 42.8 °F 93% 29.67 in 10.0 mi WNW 5.8 mph - N/A   Clear
1:35 AM 44.6 °F 40.7 °F 42.8 °F 93% 29.66 in 10.0 mi West 6.9 mph - N/A   Clear
1:55 AM 44.6 °F 39.7 °F 42.8 °F 93% 29.66 in 10.0 mi WNW 9.2 mph - N/A   Scattered Clouds
2:15 AM 44.6 °F 38.4 °F 42.8 °F 93% 29.66 in 10.0 mi WNW 12.7 mph 20.7 mph N/A   Scattered Clouds
2:35 AM 42.8 °F 38.6 °F 42.8 °F 100% 29.67 in 10.0 mi WNW 6.9 mph - N/A   Scattered Clouds
2:55 AM 42.8 °F 39.3 °F 42.8 °F 100% 29.68 in 10.0 mi WNW 5.8 mph - N/A   Scattered Clouds
3:15 AM 42.8 °F 40.1 °F 42.8 °F 100% 29.68 in 10.0 mi WNW 4.6 mph - N/A   Scattered Clouds
3:35 AM 42.8 °F 38.6 °F 42.8 °F 100% 29.68 in 10.0 mi WNW 6.9 mph - N/A   Mostly Cloudy
3:55 AM 42.8 °F 37.0 °F 42.8 °F 100% 29.67 in 10.0 mi WNW 10.4 mph 16.1 mph N/A   Scattered Clouds
4:15 AM 42.8 °F 38.6 °F 41.0 °F 93% 29.67 in 10.0 mi WNW 6.9 mph - N/A   Clear
4:35 AM 41.0 °F 35.2 °F 41.0 °F 100% 29.68 in 10.0 mi WNW 9.2 mph 17.3 mph N/A   Clear
4:55 AM 41.0 °F 36.4 °F 39.2 °F 93% 29.66 in 10.0 mi West 6.9 mph - N/A   Clear
5:15 AM 41.0 °F 35.2 °F 37.4 °F 87% 29.67 in 10.0 mi West 9.2 mph - N/A   Clear
5:35 AM 41.0 °F 35.8 °F 37.4 °F 87% 29.66 in 10.0 mi West 8.1 mph - N/A   Clear
5:55 AM 41.0 °F 35.8 °F 37.4 °F 87% 29.66 in 10.0 mi West 8.1 mph 17.3 mph N/A   Clear
6:15 AM 41.0 °F 34.7 °F 37.4 °F 87% 29.67 in 10.0 mi West 10.4 mph 18.4 mph N/A   Scattered Clouds
6:35 AM 41.0 °F 34.3 °F 37.4 °F 87% 29.67 in 10.0 mi WNW 11.5 mph 29.9 mph N/A   Mostly Cloudy
6:55 AM 42.8 °F 36.2 °F 35.6 °F 76% 29.67 in 10.0 mi WNW 12.7 mph 21.9 mph N/A   Mostly Cloudy
7:15 AM 42.8 °F 35.8 °F 35.6 °F 76% 29.67 in 10.0 mi West 13.8 mph 24.2 mph N/A   Mostly Cloudy
7:35 AM 42.8 °F 36.2 °F 37.4 °F 81% 29.68 in 10.0 mi WNW 12.7 mph 33.4 mph N/A   Overcast
7:55 AM 42.8 °F 34.8 °F 37.4 °F 81% 29.68 in 10.0 mi WNW 17.3 mph 33.4 mph N/A   Overcast
8:15 AM 42.8 °F 35.1 °F 37.4 °F 81% 29.69 in 10.0 mi WNW 16.1 mph 29.9 mph N/A   Overcast
8:35 AM 42.8 °F 36.2 °F 37.4 °F 81% 29.70 in 10.0 mi WNW 12.7 mph 28.8 mph N/A   Overcast
8:55 AM 42.8 °F 34.0 °F 37.4 °F 81% 29.71 in 10.0 mi WNW 20.7 mph 31.1 mph N/A   Overcast
9:15 AM 42.8 °F 34.5 °F 37.4 °F 81% 29.71 in 10.0 mi WNW 18.4 mph 32.2 mph N/A   Overcast
9:35 AM 42.8 °F 36.2 °F 39.2 °F 87% 29.72 in 10.0 mi WNW 12.7 mph 28.8 mph N/A   Overcast
9:55 AM 42.8 °F 35.1 °F 37.4 °F 81% 29.72 in 10.0 mi WNW 16.1 mph 33.4 mph N/A   Overcast
10:15 AM 42.8 °F 37.5 °F 37.4 °F 81% 29.74 in 10.0 mi WNW 9.2 mph 20.7 mph N/A   Overcast
10:35 AM 42.8 °F 39.3 °F 41.0 °F 93% 29.75 in 10.0 mi WNW 5.8 mph 24.2 mph N/A   Overcast
10:55 AM 42.8 °F 40.1 °F 41.0 °F 93% 29.75 in 10.0 mi WNW 4.6 mph 16.1 mph N/A   Overcast
11:15 AM 42.8 °F 35.8 °F 41.0 °F 93% 29.75 in 10.0 mi WNW 13.8 mph 26.5 mph N/A   Overcast
11:35 AM 42.8 °F 36.2 °F 41.0 °F 93% 29.76 in 10.0 mi WNW 12.7 mph 31.1 mph N/A   Overcast
11:55 AM 44.6 °F 40.7 °F 41.0 °F 87% 29.76 in 10.0 mi West 6.9 mph 21.9 mph N/A   Overcast
12:15 PM 44.6 °F 38.1 °F 41.0 °F 87% 29.76 in 10.0 mi WNW 13.8 mph 21.9 mph N/A   Overcast
12:35 PM 44.6 °F 38.8 °F 41.0 °F 87% 29.77 in 10.0 mi WNW 11.5 mph 21.9 mph N/A   Overcast
12:55 PM 44.6 °F 36.9 °F 41.0 °F 87% 29.76 in 10.0 mi WNW 18.4 mph 24.2 mph N/A   Overcast
1:15 PM 44.6 °F 39.7 °F 41.0 °F 87% 29.77 in 10.0 mi West 9.2 mph 27.6 mph N/A   Overcast
1:35 PM 44.6 °F 38.8 °F 41.0 °F 87% 29.77 in 10.0 mi WNW 11.5 mph 24.2 mph N/A   Overcast
1:55 PM 44.6 °F 37.8 °F 39.2 °F 81% 29.77 in 10.0 mi WNW 15.0 mph 26.5 mph N/A   Overcast
2:15 PM 44.6 °F 38.8 °F 41.0 °F 87% 29.78 in 10.0 mi West 11.5 mph 23.0 mph N/A   Overcast
2:35 PM 44.6 °F 40.7 °F 41.0 °F 87% 29.78 in 10.0 mi WNW 6.9 mph 17.3 mph N/A   Overcast
2:55 PM 44.6 °F 39.2 °F 41.0 °F 87% 29.78 in 10.0 mi West 10.4 mph 18.4 mph N/A   Overcast
3:15 PM 44.6 °F 40.2 °F 41.0 °F 87% 29.78 in 10.0 mi West 8.1 mph 19.6 mph N/A   Overcast
3:35 PM 44.6 °F 41.4 °F 41.0 °F 87% 29.79 in 10.0 mi WNW 5.8 mph 20.7 mph N/A   Overcast
3:55 PM 44.6 °F 40.7 °F 41.0 °F 87% 29.80 in 10.0 mi WNW 6.9 mph 20.7 mph N/A   Overcast
4:15 PM 44.6 °F 41.4 °F 42.8 °F 93% 29.80 in 10.0 mi West 5.8 mph 16.1 mph N/A   Overcast
4:35 PM 44.6 °F 39.7 °F 42.8 °F 93% 29.81 in 10.0 mi West 9.2 mph 17.3 mph N/A   Overcast
4:55 PM 44.6 °F 41.4 °F 42.8 °F 93% 29.82 in 10.0 mi West 5.8 mph - N/A   Overcast
5:15 PM 44.6 °F 39.7 °F 41.0 °F 87% 29.83 in 10.0 mi West 9.2 mph 24.2 mph N/A   Overcast
5:35 PM 44.6 °F 39.7 °F 41.0 °F 87% 29.83 in 10.0 mi West 9.2 mph - N/A   Overcast
5:55 PM 44.6 °F 41.4 °F 41.0 °F 87% 29.84 in 10.0 mi West 5.8 mph - N/A   Overcast
6:15 PM 44.6 °F - 41.0 °F 87% 29.84 in 10.0 mi Calm Calm - N/A   Overcast
6:35 PM 42.8 °F 38.6 °F 41.0 °F 93% 29.85 in 10.0 mi West 6.9 mph - N/A   Overcast
6:55 PM 42.8 °F 40.1 °F 41.0 °F 93% 29.85 in 10.0 mi West 4.6 mph - N/A   Overcast
7:15 PM 42.8 °F 39.3 °F 41.0 °F 93% 29.86 in 10.0 mi West 5.8 mph - N/A   Overcast
7:35 PM 42.8 °F 40.1 °F 41.0 °F 93% 29.86 in 10.0 mi West 4.6 mph - N/A   Mostly Cloudy
7:55 PM 42.8 °F 41.1 °F 41.0 °F 93% 29.87 in 10.0 mi West 3.5 mph - N/A   Mostly Cloudy
8:15 PM 42.8 °F 40.1 °F 41.0 °F 93% 29.88 in 10.0 mi West 4.6 mph - N/A   Mostly Cloudy
8:35 PM 42.8 °F 40.1 °F 41.0 °F 93% 29.88 in 10.0 mi West 4.6 mph - N/A   Mostly Cloudy
8:55 PM 42.8 °F 41.1 °F 41.0 °F 93% 29.88 in 10.0 mi WNW 3.5 mph - N/A   Mostly Cloudy
9:15 PM 42.8 °F 38.6 °F 42.8 °F 100% 29.89 in 10.0 mi WNW 6.9 mph - N/A   Mostly Cloudy
9:35 PM 42.8 °F 39.3 °F 42.8 °F 100% 29.90 in 10.0 mi WNW 5.8 mph - N/A   Overcast
9:55 PM 42.8 °F 38.0 °F 42.8 °F 100% 29.90 in 10.0 mi WNW 8.1 mph - N/A   Overcast
10:15 PM 41.0 °F 35.8 °F 41.0 °F 100% 29.90 in 10.0 mi WNW 8.1 mph 20.7 mph N/A   Scattered Clouds
10:35 PM 41.0 °F 37.1 °F 41.0 °F 100% 29.91 in 10.0 mi WNW 5.8 mph - N/A   Clear
10:55 PM 39.2 °F - 39.2 °F 100% 29.91 in 10.0 mi Calm Calm - N/A   Clear
11:15 PM 37.4 °F - 37.4 °F 100% 29.91 in 10.0 mi Calm Calm - N/A   Clear
11:35 PM 37.4 °F - 37.4 °F 100% 29.91 in 10.0 mi Calm Calm - N/A   Clear
11:55 PM 37.4 °F - 37.4 °F 100% 29.91 in 10.0 mi Calm Calm - N/A   Clear